Location: Acheville
(50.3840°N, 2.8827°E)
Time: 08:54:47
(UTC+00:00)

Cosmos 2346 Rocket - Pass Details

Date: 24 October 2021
Orbit: 937 x 979 km, 82.9° (Epoch: 30 November)

Event Time Altitude Azimuth Distance (km) Brightness Sun altitude
Rises 19:27:47 0° 349° (N) 3,682 7.9 -27.5°
Reaches altitude 10° 19:30:18 10° 348° (NNW) 2,735 7.1 -27.8°
Maximum altitude 19:36:35 79° 263° (W) 1,002 4.5 -28.8°
Enters shadow 19:38:13 52° 188° (S) 1,204 4.8 -29.1°
